Simultaneous Nadir Overpasses (SNOs) Predictions

Prediction of SNOs between GOES-16 and TERRA Satellite Orbit:

Table of predicted SNOs for the next 14.0 days since TLE Epoch: 7/18/2025
Index Date Time (GOES-16) GOES-16 Lat,Lon TERRA Lat,Lon Distance(km) Time Diff (sec)
1 07/20/2025 04:04:19 -0.00,-104.71 0.66,-101.69 342.98 80
2 07/20/2025 16:26:26 0.00,-104.74 0.35,-106.43 191.94 80
3 07/22/2025 16:04:34 0.00,-104.73 -0.61,-101.80 333.23 80
4 07/23/2025 04:26:50 -0.00,-104.70 -0.37,-106.57 211.84 80
5 07/25/2025 04:04:58 0.00,-104.70 0.60,-101.95 313.73 80
6 07/25/2025 16:27:05 -0.00,-104.73 0.40,-106.68 220.92 80
7 07/27/2025 16:05:13 -0.01,-104.74 -0.59,-102.06 305.41 80
8 07/28/2025 04:27:27 0.01,-104.72 -0.45,-106.82 239.40 80
9 07/30/2025 04:05:35 0.01,-104.73 0.54,-102.20 287.44 80
10 07/30/2025 16:27:42 -0.01,-104.76 0.43,-106.93 246.85 80
11 08/01/2025 16:05:49 -0.01,-104.77 -0.52,-102.30 280.18 80
